Theta_e
341 340 341 342 340 340 337 335 335 335 333 328 336 335 335 336 336 334 333 332 331 331 329 328 327 327 326 325 325 324 323 321
338 341 339 338 337 337 337 336 332 332 333 333 331 332 332 332 333 333 333 332 331 330 328 328 325 324 325 324 324 323 322 320
338 339 338 338 338 336 338 336 329 325 329 331 332 326 330 331 331 332 331 329 330 328 327 324 323 324 324 323 322 321 320 320
336 337 336 336 336 335 337 334 325 330 331 330 328 329 330 327 329 331 329 329 327 325 321 320 323 324 322 321 320 319 319 319
334 334 336 336 334 334 334 333 328 331 331 328 326 326 328 327 328 330 328 328 325 322 319 322 323 322 320 319 318 318 318 318
333 334 335 335 334 333 333 333 332 330 327 326 327 325 324 327 328 328 327 327 323 322 319 322 322 321 320 319 317 317 317 317
333 333 333 332 333 332 331 331 331 331 328 326 326 327 327 329 329 327 325 326 324 321 320 320 320 320 319 318 317 316 317 317
332 331 330 331 332 331 329 328 327 327 326 325 325 327 329 329 328 327 323 324 323 320 318 319 320 320 319 319 318 316 317 317
331 330 329 330 331 330 329 328 326 325 325 325 326 328 328 328 327 326 321 320 320 320 317 318 320 320 319 319 318 317 316 317
331 330 330 329 330 329 328 328 327 327 327 325 324 328 327 327 326 324 320 320 319 320 316 317 319 320 319 319 318 317 316 317
329 330 329 328 329 329 327 327 327 327 326 328 327 328 327 326 324 321 319 319 319 318 314 317 318 320 320 319 318 317 317 317
328 332 328 327 329 328 327 326 326 325 327 328 328 327 327 325 321 318 317 317 317 315 312 317 317 320 319 319 318 318 317 317
327 327 326 327 328 327 326 326 325 325 327 327 327 327 327 325 320 316 316 315 313 312 315 317 317 320 319 317 317 317 317 316
327 328 325 327 327 326 326 325 325 325 326 326 324 325 327 324 322 316 313 311 314 315 316 317 318 320 319 317 315 317 317 317
326 327 327 326 327 326 326 325 324 324 324 324 324 324 326 324 323 318 315 312 316 317 318 318 318 319 319 318 314 318 314 318
325 324 325 326 326 325 325 325 324 324 323 323 323 324 325 325 324 320 318 315 317 318 319 319 319 318 318 319 319 318 315 314
323 324 324 324 325 325 324 323 322 322 323 322 322 322 322 322 322 323 318 319 317 318 318 319 319 319 318 317 318 316 316 314
322 322 323 323 323 322 322 321 320 321 321 321 321 322 322 321 321 323 322 321 321 319 320 319 318 318 319 319 317 317 317 317
321 321 321 322 322 321 321 321 320 320 321 321 321 321 321 321 321 320 321 321 321 322 320 319 317 318 319 318 318 316 316 317
321 321 321 321 321 321 321 321 321 319 320 320 321 321 320 320 319 319 321 321 321 321 321 320 319 318 318 318 318 316 315 316
Wind_Speed
17 22 23 25 24 25 26 25 29 29 26 27 28 27 35 35 32 31 33 32 33 33 36 35 30 27 28 29 27 27 27 24
14 21 18 20 20 21 23 17 19 22 14 15 24 21 21 26 26 31 34 33 33 34 37 33 26 26 30 28 27 27 25 26
13 17 17 19 16 18 22 24 20 29 27 25 26 27 20 21 27 30 31 35 36 35 32 25 25 29 30 27 26 26 27 27
14 16 17 16 16 17 20 22 30 33 32 39 32 26 23 22 23 29 28 38 37 33 27 26 30 33 29 26 24 26 26 26
15 15 16 18 18 21 23 27 29 31 33 39 34 24 31 27 25 27 29 36 38 32 27 31 35 34 30 25 24 26 26 26
15 14 16 18 19 22 27 27 33 36 35 36 36 31 34 29 28 31 32 36 37 34 29 30 34 32 27 23 26 27 26 27
17 15 17 16 18 21 24 27 32 34 35 36 31 33 34 36 35 33 34 39 39 36 32 31 30 27 25 26 26 26 27 27
20 19 17 17 19 20 22 24 25 27 30 31 34 35 35 37 36 36 37 39 39 39 36 32 27 27 27 27 26 25 27 27
23 20 18 19 19 20 20 23 23 24 25 33 34 36 39 35 36 37 38 37 39 36 32 30 25 23 29 27 26 24 26 26
23 22 21 20 20 19 20 21 21 21 25 32 40 38 37 38 38 39 40 38 37 35 30 30 25 23 28 29 26 25 26 27
23 23 22 20 19 18 19 21 21 19 25 27 36 39 35 35 36 38 39 38 38 38 33 30 24 22 26 29 26 27 25 26
23 21 23 21 20 19 19 19 20 20 25 26 26 32 37 37 34 35 37 38 35 38 36 29 25 25 23 25 26 24 24 26
24 20 24 25 23 21 17 19 20 21 23 28 28 30 32 33 32 34 35 36 36 37 38 30 24 26 23 15 18 21 23 25
26 20 24 27 24 22 17 20 21 24 27 29 26 27 30 32 34 33 36 34 31 36 35 27 23 28 14 15 3 4 17 23
29 28 23 23 26 23 19 18 17 20 23 27 27 29 32 30 33 35 33 34 35 34 34 33 22 29 22 10 3 3 4 13
29 24 23 24 27 25 22 18 12 17 20 27 30 34 35 30 26 33 35 34 34 38 35 34 30 24 22 20 17 13 3 2
28 24 26 27 27 27 25 17 16 16 19 25 29 30 34 34 31 31 36 37 38 42 36 34 34 30 26 20 18 14 11 3
24 25 28 29 27 26 25 20 17 17 20 23 25 29 33 35 29 30 35 42 41 41 38 35 36 35 38 32 26 14 11 6
25 25 23 28 27 25 24 23 20 18 22 22 23 26 31 32 29 32 33 32 30 31 32 28 25 35 41 35 34 32 22 30
25 25 23 26 27 26 27 23 21 20 21 22 24 25 32 37 35 32 35 31 27 27 34 37 33 27 35 42 40 40 33 36
Wind_Direction
204 207 210 212 213 210 212 213 218 180 175 169 184 157 158 160 160 158 153 155 153 151 151 150 148 148 151 149 150 148 142 139
198 206 207 215 215 216 217 189 132 122 165 177 161 159 159 167 166 165 160 159 158 154 155 152 152 151 155 156 155 153 151 146
189 196 209 213 217 216 215 205 199 189 190 195 164 172 181 176 177 170 166 163 158 155 158 159 162 159 159 153 158 155 152 145
191 199 206 209 206 193 197 188 179 176 169 174 171 168 184 186 189 173 170 165 156 156 155 158 157 157 156 159 159 157 156 150
194 200 204 200 193 183 179 177 185 184 175 173 191 168 185 187 192 173 175 168 156 156 154 160 161 161 162 159 156 162 157 151
193 197 194 197 200 184 183 187 188 182 177 182 178 177 176 183 192 179 177 173 160 160 161 165 164 167 163 160 162 164 160 158
188 186 192 198 202 197 194 195 196 200 199 196 184 184 174 179 191 183 183 178 168 162 157 156 162 168 169 169 168 166 166 165
182 187 193 200 202 206 207 201 199 199 197 197 191 184 179 177 182 186 187 182 175 167 162 163 164 177 176 176 173 171 172 172
185 186 194 199 201 207 211 204 202 198 194 195 185 184 185 176 178 187 187 185 178 171 165 162 157 171 180 180 179 174 178 178
183 186 191 201 199 201 205 209 212 213 210 205 205 183 184 180 183 186 187 183 176 175 171 164 163 172 180 185 184 180 181 184
186 189 187 195 199 197 207 209 206 201 200 150 168 177 177 179 183 186 185 182 179 181 180 173 166 172 179 187 186 186 187 188
187 180 191 196 192 191 198 204 204 200 183 174 164 177 186 184 184 187 185 184 183 182 182 179 169 172 178 186 189 191 191 195
188 175 186 192 184 178 183 190 206 200 193 186 179 187 192 188 187 187 186 186 186 184 181 178 169 172 164 166 185 196 199 203
187 180 182 190 185 181 184 197 207 210 202 198 196 197 196 192 193 190 192 189 188 184 183 184 181 176 164 144 139 206 218 216
189 193 183 183 187 182 180 184 199 206 211 205 199 195 192 185 195 193 194 191 191 191 189 190 184 188 181 159 137 179 165 226
190 190 191 190 192 191 191 194 192 203 198 204 201 201 201 196 196 197 200 198 198 198 198 199 195 191 194 199 191 162 156 208
184 189 197 198 199 199 202 202 210 204 201 203 204 194 198 200 212 212 207 209 208 201 205 204 199 197 194 186 179 176 190 153
179 185 195 202 204 207 210 207 208 196 201 194 197 196 198 204 212 216 213 215 216 209 210 210 204 207 203 201 199 176 200 188
180 183 189 201 205 211 211 213 205 205 194 192 186 191 192 202 209 211 203 205 211 209 215 207 205 210 209 205 214 210 223 226
181 183 186 193 198 205 215 218 203 199 192 193 194 193 195 198 205 207 206 203 203 203 213 212 214 231 218 214 216 224 227 214